Hourly Data Report for July 11, 2006

TORONTO CITY
ONTARIO

43°40'00.000" N
79°24'00.000" W
112.50 m
6158355
71508
XTO

Download Data

Hourly Data (July 2006)
Hourly Data Report for July 11, 2006
TIME
LST
Temp Definition
°C
Dew Point Definition
°C
Rel Hum Definition
%
Precip. Amount Definition
mm

Wind Dir Definition
10's deg

Wind Spd Definition
km/h
Visibility Definition
km
Stn Press Definition
kPa
Hmdx Definition


Wind Chill Definition


Weather Definition


00:00 19.2 18.1 93   LegendMM LegendMM   100.11     LegendNANA
01:00 18.2 17.5 96   LegendMM LegendMM   100.12     LegendNANA
02:00 17.8 17.3 97   LegendMM LegendMM   100.13     LegendNANA
03:00 17.7 17.3 98   LegendMM LegendMM   100.17     LegendNANA
04:00 17.2 16.7 97   LegendMM LegendMM   100.22     LegendNANA
05:00 17.1 16.5 96   LegendMM LegendMM   100.28     LegendNANA
06:00 18.1 16.9 93   LegendMM LegendMM   100.31     LegendNANA
07:00 19.6 17.1 85   LegendMM LegendMM   100.35     LegendNANA
08:00 20.6 17.3 81   LegendMM LegendMM   100.39 26   LegendNANA
09:00 21.0 17.6 81   LegendMM LegendMM   100.43 27   LegendNANA
10:00 22.5 18.3 77   LegendMM LegendMM   100.41 29   LegendNANA
11:00 22.4 17.6 74   LegendMM LegendMM   100.44 28   LegendNANA
12:00 23.0 17.9 73   LegendMM LegendMM   100.43 29   LegendNANA
13:00 22.5 17.6 74   LegendMM LegendMM   100.44 28   LegendNANA
14:00 23.7 18.0 70   LegendMM LegendMM   100.44 30   LegendNANA
15:00 24.4 17.9 67   LegendMM LegendMM   100.41 30   LegendNANA
16:00 25.3 17.9 64   LegendMM LegendMM   100.38 31   LegendNANA
17:00 25.0 18.2 66   LegendMM LegendMM   100.32 31   LegendNANA
18:00 25.2 18.0 64   LegendMM LegendMM   100.27 31   LegendNANA
19:00 24.0 17.4 67   LegendMM LegendMM   100.29 30   LegendNANA
20:00 23.1 17.3 70   LegendMM LegendMM   100.30 29   LegendNANA
21:00 22.6 17.0 71   LegendMM LegendMM   100.34 28   LegendNANA
22:00 22.1 16.0 68   LegendMM LegendMM   100.33 27   LegendNANA
23:00 21.4 15.9 71   LegendMM LegendMM   100.30 26   LegendNANA

Notes on Data Quality.

Legend

  • E = Estimated
  • M = Missing
  • NA = Not Available*
  • [empty] = Indicates an unobserved value
Date modified: